CW6617 Weather Reports


Display with metric or nautical units.
time (UTC)temp
F
wind
direction
speed
MPH
gust
MPH
rain 1hr
in
rain 24hr
in
rain mn
in
humidity
%
barometer
mb
20260502214203 55 165 2.0 5.0 0.00 0.08 0.08 95 1010.8
20260502211703 55 166 1.0 6.0 0.00 0.08 0.08 95 1010.9
20260502210704 55 167 1.0 3.0 0.00 0.08 0.08 94 1010.9
20260502210204 55 167 0.0 6.0 0.00 0.08 0.08 94 1011.0
20260502204705 56 167 0.0 5.0 0.00 0.08 0.08 94 1011.1
20260502204203 56 167 0.0 6.0 0.00 0.08 0.08 94 1011.1
20260502203704 56 167 0.0 3.0 0.00 0.08 0.08 94 1011.2
20260502203203 56 168 2.0 6.0 0.00 0.08 0.08 94 1011.4
20260502201704 56 170 1.0 5.0 0.00 0.08 0.08 94 1011.3
20260502201203 56 170 2.0 5.0 0.00 0.08 0.08 94 1011.2
20260502200704 56 172 1.0 5.0 0.00 0.08 0.08 94 1011.2
20260502200203 56 172 0.0 0.0 0.00 0.08 0.08 94 1011.2
20260502194704 56 172 0.0 2.0 0.00 0.08 0.08 93 1011.2
20260502194203 56 171 0.0 0.0 0.00 0.08 0.08 93 1011.1
20260502193704 57 171 0.0 1.0 0.00 0.08 0.08 94 1011.0
20260502193204 57 171 0.0 7.0 0.00 0.08 0.08 94 1011.0
20260502190704 57 183 1.0 2.0 0.00 0.08 0.08 93 1011.1
20260502190203 57 188 1.0 7.0 0.00 0.08 0.08 93 1011.3
20260502184704 57 132 0.0 2.0 0.00 0.08 0.08 93 1011.3
20260502184203 57 132 0.0 1.0 0.00 0.08 0.08 93 1011.4
20260502183704 57 132 0.0 2.0 0.00 0.08 0.08 93 1011.3
20260502183204 57 130 0.0 5.0 0.00 0.08 0.08 93 1011.3
20260502181704 57 107 0.0 2.0 0.00 0.08 0.08 93 1011.3
20260502181204 57 107 0.0 3.0 0.00 0.08 0.08 93 1011.3
20260502180704 57 114 0.0 2.0 0.00 0.08 0.08 93 1011.3
20260502170203 58 142 1.0 5.0 0.04 0.08 0.08 91 1011.9
20260502164203 59 126 0.0 5.0 0.06 0.07 0.07 90 1012.5
20260502163704 59 164 0.0 2.0 0.07 0.07 0.07 89 1012.4
20260502163203 59 164 1.0 7.0 0.07 0.07 0.07 89 1012.4
20260502161703 60 163 2.0 5.0 0.06 0.06 0.06 87 1012.5
20260502161204 60 163 4.0 8.0 0.06 0.06 0.06 87 1012.7
20260502160204 61 156 6.0 13.0 0.04 0.04 0.04 85 1013.1
20260502151204 69 162 5.0 13.0 0.00 0.00 0.00 62 1012.9
20260502150703 69 167 3.0 9.0 0.00 0.00 0.00 61 1013.0
20260502150204 69 122 2.0 13.0 0.00 0.00 0.00 61 1013.0
20260502130704 73 159 6.0 12.0 0.00 0.00 0.00 50 1014.6
20260502130204 73 206 3.0 10.0 0.00 0.00 0.00 49 1014.5
20260502121704 71 171 5.0 8.0 0.00 0.00 0.00 52 1015.4
20260502121203 71 236 1.0 8.0 0.00 0.00 0.00 53 1015.6
20260502120703 72 189 5.0 12.0 0.00 0.00 0.00 52 1015.7
20260502120203 72 177 2.0 8.0 0.00 0.00 0.00 53 1015.8
20260502114703 69 344 2.0 5.0 0.00 0.00 0.00 54 1015.8
20260502113703 69 165 5.0 13.0 0.00 0.00 0.00 51 1016.2
20260502113204 70 176 2.0 8.0 0.00 0.00 0.00 54 1016.3
20260502111704 68 166 2.0 7.0 0.00 0.00 0.00 56 1016.3
20260502111203 67 183 4.0 9.0 0.00 0.00 0.00 57 1016.3
20260502110704 67 215 2.0 8.0 0.00 0.00 0.00 57 1016.4
20260502104703 65 242 1.0 5.0 0.00 0.00 0.00 63 1016.7
20260502103704 65 193 5.0 12.0 0.00 0.00 0.00 64 1017.0
20260502103204 65 165 5.0 9.0 0.00 0.00 0.00 63 1017.1
20260502101204 63 286 1.0 3.0 0.00 0.00 0.00 69 1017.2
20260502100704 62 254 2.0 5.0 0.00 0.00 0.00 71 1017.3
20260502091203 56 164 0.0 2.0 0.00 0.00 0.00 83 1017.7
20260502090704 56 164 1.0 2.0 0.00 0.00 0.00 83 1017.8
20260502090203 56 164 1.0 5.0 0.00 0.00 0.00 83 1018.0
20260502071204 50 168 0.0 2.0 0.00 0.00 0.00 94 1018.4
20260502070204 50 168 0.0 6.0 0.00 0.00 0.00 94 1018.5
20260502064703 50 163 0.0 2.0 0.00 0.00 0.00 94 1018.4
20260502064204 50 163 1.0 2.0 0.00 0.00 0.00 94 1018.4
20260502063703 50 163 2.0 5.0 0.00 0.00 0.00 94 1018.3
20260502063203 50 163 0.0 6.0 0.00 0.00 0.00 94 1018.3
20260502061704 50 161 2.0 5.0 0.00 0.00 0.00 94 1018.4
20260502061203 49 161 3.0 5.0 0.00 0.00 0.00 94 1018.5
20260502060704 49 161 1.0 2.0 0.00 0.00 0.00 94 1018.4
20260502060205 50 159 0.0 5.0 0.00 0.00 0.00 94 1018.4
20260502054704 49 159 3.0 6.0 0.00 0.00 0.00 94 1018.4
20260502054204 50 157 1.0 2.0 0.00 0.00 0.00 94 1018.3
20260502053703 50 155 1.0 2.0 0.00 0.00 0.00 94 1018.3
20260502051704 50 171 4.0 7.0 0.00 0.00 0.00 94 1018.3
20260502051203 50 179 2.0 6.0 0.00 0.00 0.00 94 1018.3
20260502050704 50 178 3.0 5.0 0.00 0.00 0.00 94 1018.3
20260502050203 50 194 1.0 3.0 0.00 0.00 0.00 94 1018.2
20260502044704 50 196 0.0 2.0 0.00 0.00 0.00 94 1018.2
20260502044203 50 196 0.0 2.0 0.00 0.00 0.00 94 1018.2
20260502043704 50 196 1.0 2.0 0.00 0.00 0.00 94 1018.2
20260502043203 50 196 2.0 5.0 0.00 0.00 0.00 94 1018.1
20260502041704 50 179 2.0 3.0 0.00 0.00 0.00 94 1018.2
20260502041203 50 179 0.0 2.0 0.00 0.00 0.00 94 1018.3
20260502040703 50 179 0.0 2.0 0.00 0.00 0.00 94 1018.3
20260502040204 50 179 2.0 6.0 0.00 0.00 0.00 94 1018.3
20260502034704 50 175 1.0 3.0 0.00 0.00 0.00 94 1018.3
20260502034204 50 175 2.0 3.0 0.00 0.00 0.00 94 1018.4
20260502033704 50 174 2.0 3.0 0.00 0.00 0.00 94 1018.5
20260502031703 50 174 1.0 3.0 0.00 0.00 0.00 93 1018.6
20260502030703 50 174 1.0 2.0 0.00 0.00 0.00 93 1018.7
20260502030204 50 174 0.0 6.0 0.00 0.00 0.00 93 1018.6
20260502024704 50 160 3.0 7.0 0.00 0.00 0.00 92 1018.7
20260502024204 50 169 5.0 6.0 0.00 0.00 0.00 92 1018.8
20260502023704 50 171 2.0 5.0 0.00 0.00 0.00 91 1018.7
20260502023204 51 171 3.0 6.0 0.00 0.00 0.00 91 1018.7
20260502021704 51 166 2.0 6.0 0.00 0.00 0.00 91 1018.7
20260502021204 51 165 3.0 5.0 0.00 0.00 0.00 91 1018.7
20260502020704 51 165 3.0 6.0 0.00 0.00 0.00 91 1018.8
20260502020204 51 165 3.0 6.0 0.00 0.00 0.00 91 1018.7
20260502014703 51 170 3.0 6.0 0.00 0.00 0.00 91 1018.8
20260502014204 51 176 2.0 5.0 0.00 0.00 0.00 91 1018.9
20260502013703 51 175 2.0 3.0 0.00 0.00 0.00 91 1018.8
20260502013203 51 175 2.0 6.0 0.00 0.00 0.00 91 1018.9
20260502011704 51 172 2.0 3.0 0.00 0.00 0.00 90 1018.9
20260502011203 51 172 0.0 1.0 0.00 0.00 0.00 89 1019.0
20260502010704 51 172 0.0 0.0 0.00 0.00 0.00 89 1019.0
20260502004704 52 172 0.0 1.0 0.00 0.00 0.00 89 1019.2
20260502004203 52 172 0.0 2.0 0.00 0.00 0.00 89 1019.2
20260502003704 52 172 0.0 2.0 0.00 0.00 0.00 89 1019.4
20260502003203 52 172 1.0 3.0 0.00 0.00 0.00 89 1019.4
20260502001704 52 172 1.0 3.0 0.00 0.00 0.00 89 1019.7
20260502001204 52 172 2.0 3.0 0.00 0.00 0.00 89 1019.7
20260502000204 52 173 3.0 6.0 0.00 0.00 0.00 88 1019.7
20260501234203 52 171 2.0 5.0 0.00 0.00 0.00 87 1019.7
20260501233704 52 171 2.0 5.0 0.00 0.00 0.00 87 1019.7
20260501233204 53 171 2.0 5.0 0.00 0.00 0.00 86 1019.8
20260501231704 53 171 2.0 5.0 0.00 0.00 0.00 85 1019.8
20260501231203 53 171 1.0 2.0 0.00 0.00 0.00 85 1019.8
20260501230704 53 171 1.0 2.0 0.00 0.00 0.00 84 1019.8
20260501230203 53 171 2.0 6.0 0.00 0.00 0.00 84 1019.9
20260501224704 54 171 3.0 5.0 0.00 0.00 0.00 83 1019.9
20260501224203 54 167 4.0 7.0 0.00 0.00 0.00 83 1019.8
20260501223204 54 160 3.0 8.0 0.00 0.00 0.00 81 1019.8
20260501221704 55 167 3.0 6.0 0.00 0.00 0.00 80 1020.0
20260501221203 55 167 3.0 5.0 0.00 0.00 0.00 79 1019.8
20260501220704 55 167 2.0 5.0 0.00 0.00 0.00 79 1019.7
20260501220203 55 173 2.0 3.0 0.00 0.00 0.00 78 1019.8
20260501214704 56 172 1.0 3.0 0.00 0.00 0.00 77 1019.8